Location: Chantepie
(48.0889°N, 1.6152°W)
Time: 11:15:21
(UTC+00:00)

Daily predictions for brighter satellites

Satellite Brightness Start Highest point End
(mag) Time Altitude Azimuth Time Altitude Azimuth Time Altitude Azimuth
Cosmos 1766 Rocket 4.3 16:44:55 10° NNW 16:49:13 57° W 16:53:30 10° S
Cosmos 2084 3.5 16:45:29 10° NW 16:49:44 61° NE 16:54:08 10° SE
Cosmos 1656 3.7 16:44:58 10° NNW 16:50:32 81° ENE 16:56:08 10° SSE
NOSS 2-1 (E) 4.2 16:50:56 10° WSW 16:53:54 33° NW 16:57:06 10° NNE
Cosmos 1862 4.4 16:50:36 10° NNW 16:54:28 49° W 16:58:20 10° S
FengYun 1-2 T 4.3 16:49:10 10° SSE 16:54:38 59° ENE 17:00:06 10° N
H-2A R/B 2.9 16:51:27 10° ESE 16:55:45 27° ENE 16:59:58 10° N
Cosmos 2034 Rocket 4.1 16:49:57 10° S 16:55:56 57° E 17:01:57 10° NNE
MOS 1 Rocket 4.3 16:51:26 10° N 16:56:22 52° WNW 17:01:00 10° SW
ERBS 3.2 16:53:30 10° W 16:56:30 36° NNW 16:59:32 10° NE
Cosmos 2322 Rocket 4.0 16:55:21 10° N 16:57:20 12° NNE 16:59:19 10° NE
USA 306 3.6 16:55:41 10° W 16:59:44 41° NNW 17:03:44 10° ENE
Cosmos 1271 Rocket 4.0 16:57:18 10° SSW 17:01:06 44° WNW 17:04:56 10° N
Meteor 2-19 Rocket 4.4 16:55:08 10° N 17:01:16 84° E 17:07:23 10° S
Cosmos 1697 Rocket 2.8 16:56:18 10° NNW 17:01:49 54° ENE 17:07:19 10° SE
Cosmos 2369 4.1 16:59:39 10° NNW 17:05:05 41° NE 17:10:28 10° ESE
USA 267 3.3 16:58:40 10° NE 17:05:15 79° SE 17:11:48 10° SW
Cosmos 1980 Rocket 2.8 17:00:21 10° NNW 17:05:30 34° NE 17:10:36 10° ESE
Cosmos 1763 Rocket 3.7 17:02:35 10° S 17:07:29 51° ESE 17:12:26 10° NNE
COSMO-SKYMED 1 4.2 17:05:13 10° NE 17:07:48 15° E 17:10:22 10° SE
Cosmos 1939 Rocket 2.9 17:05:11 10° SSE 17:09:15 62° ENE 17:13:17 10° N
SL-24 R/B - RUBIN 2 4.2 17:05:59 10° NNW 17:10:16 35° NE 17:14:18 10° ESE
Meteor 1-25 Rocket 4.2 17:05:34 10° N 17:11:05 58° ENE 17:16:35 10° SSE
Cosmos 841 Rocket 4.5 17:08:51 10° SSE 17:13:09 27° E 17:17:15 11° NE
SL-16 R/B 3.7 17:11:23 10° N 17:14:56 17° NE 17:17:26 13° ENE
Cosmos 1937 Rocket 3.7 17:09:46 10° NNW 17:14:59 52° ENE 17:20:10 10° SE
Cosmos 1812 4.3 17:12:58 10° SE 17:15:20 16° E 17:16:32 14° ENE
Cosmos 1634 Rocket 4.4 17:11:52 10° SSE 17:17:42 41° E 17:23:34 10° NNE
USA 307 3.7 17:14:03 10° WNW 17:18:06 39° N 17:21:20 15° ENE
Cosmos 1633 Rocket 4.3 17:14:54 10° NNE 17:18:08 20° ENE 17:21:21 10° ESE
USA 229 DEB 4.0 17:12:05 10° NW 17:19:25 87° NE 17:27:14 10° SE
USA 229 4.0 17:12:11 10° NW 17:19:31 87° NE 17:27:20 10° SE
Cosmos 2082 Rocket 3.2 17:15:52 10° SSE 17:20:33 27° ESE 17:24:27 13° NE
YAOGAN 1 4.4 17:22:20 13° NE 17:22:20 13° NE 17:23:28 10° NNE
NOAA 6 4.0 17:17:27 10° SSE 17:22:36 80° ENE 17:27:44 10° NNW
Cosmos 990 Rocket 4.2 17:18:24 10° NNW 17:23:36 78° WSW 17:28:45 10° SSE
Cosmos 2026 Rocket 4.0 17:17:50 10° N 17:23:52 55° ENE 17:29:49 10° SSE
Cosmos 1408 Rocket 4.5 17:19:52 10° NNW 17:24:07 52° W 17:28:22 10° S
Cosmos 2195 Rocket 4.4 17:21:00 10° N 17:27:09 67° ENE 17:33:18 10° SSE
CZ-4B DEB 4.2 17:21:44 10° SSE 17:27:12 69° ENE 17:32:41 10° N
CORIOLIS 4.1 17:21:55 10° SSE 17:27:18 78° ENE 17:32:45 10° NNW
ATLAS 2AS CENTAUR R/B 4.2 17:21:09 10° WNW 17:27:31 27° NNW 17:33:27 11° NE
USA 276 3.7 17:25:28 10° W 17:28:21 34° SSW 17:31:14 10° SE
Cosmos 372 Rocket 4.3 17:24:15 10° NNW 17:29:17 45° ENE 17:34:18 10° SE
Cosmos 2278 4.2 17:24:13 10° NNW 17:29:31 37° NE 17:34:46 10° ESE
Cosmos 1602 3.7 17:25:55 10° N 17:29:45 61° ENE 17:33:34 10° SSE
Okean O Rocket 2.4 17:26:42 10° SE 17:30:32 29° ENE 17:34:23 10° N
Cosmos 1743 Rocket 3.6 17:27:32 10° NNW 17:31:53 80° W 17:36:12 10° S
ATLAS CENTAUR R/B 3.6 17:29:23 10° WNW 17:32:25 18° NNW 17:35:36 10° NNE
Cosmos 1782 3.1 17:32:15 10° SSE 17:36:02 44° E 17:39:44 11° NNE
Meteor 2-14 Rocket 4.4 17:30:02 10° N 17:36:06 62° ENE 17:42:07 10° SSE
Cosmos 1151 Rocket 4.0 17:32:32 10° SE 17:36:08 26° E 17:38:08 19° NE
COSMOS 2406 3.3 17:32:22 10° S 17:38:00 60° ESE 17:43:04 13° NE
USA 234 3.5 17:33:03 10° SE 17:39:34 72° SW 17:46:07 10° WNW
COSMOS 2455 3.2 17:34:06 10° S 17:39:45 44° ESE 17:43:55 18° NE
USA 308 3.8 17:36:41 10° WNW 17:40:39 37° N 17:42:51 22° NE
NOSS 3-1 (A) 4.5 17:35:29 10° NW 17:42:57 70° SW 17:51:39 10° SSE
Cosmos 1666 Rocket 4.0 17:39:04 10° N 17:43:16 39° ENE 17:47:24 10° SE
ARGOS 3.4 17:39:07 10° SE 17:44:12 43° ENE 17:49:19 10° N
Cosmos 1833 Rocket 2.6 17:38:54 10° SSW 17:44:30 83° ESE 17:49:48 12° NNE
Cosmos 1340 Rocket 4.3 17:42:09 10° NNW 17:46:00 41° W 17:49:51 10° SSW
Cosmos 858 Rocket 4.4 17:41:36 10° NNW 17:46:56 84° ENE 17:52:12 10° SSE
ISS -3.8 17:45:21 10° WNW 17:48:45 73° NNE 17:50:10 32° E
NOSS 2-2 (D) 4.2 17:44:26 10° NW 17:49:30 74° NE 17:56:35 10° SE
NOSS 2-2 (E) 4.4 17:44:50 10° NW 17:50:04 86° NE 17:57:28 10° SE
Cosmos 1328 Rocket 4.5 17:46:44 10° SE 17:50:28 27° E 17:50:52 27° E
CZ-2D R/B 3.1 17:47:54 10° SSE 17:51:44 86° E 17:55:36 10° NNW
Cosmos 1809 Rocket 4.4 17:45:38 10° N 17:51:46 88° W 17:57:50 10° S
PAYLOAD B 4.2 17:48:36 10° SSE 17:54:13 88° ENE 17:59:52 10° NNW
Lacrosse 5 rocket 2.1 17:52:09 10° NW 17:55:43 33° NNE 17:56:30 30° NE
SKYMED 2 3.9 17:53:45 21° NE 17:56:16 43° E 18:00:24 10° S
CZ-4 R/B 3.7 17:59:48 11° NNE 17:59:48 11° NNE 17:59:54 10° NNE
Meteor 2-21 Rocket 4.3 17:51:47 10° N 17:57:53 68° ENE 18:03:55 10° SSE
Landsat 5 4.0 18:00:26 33° E 18:00:34 33° E 18:04:13 10° SSE
CZ-4B R/B 3.0 17:55:44 10° SSE 18:01:08 72° ENE 18:06:28 10° NNW
ATLAS CENTAUR R/B 2.7 17:51:36 10° SW 18:01:10 89° NW 18:03:24 30° NE
SL-08 RB Rocket 4.0 17:59:37 10° SE 18:03:59 42° ENE 18:08:19 10° N
Cosmos 1500 3.1 18:00:19 10° N 18:04:05 82° W 18:07:48 10° S
CZ-2C R/B 2.6 17:59:23 11° NNE 18:04:16 55° E 18:09:20 10° S
Cosmos 540 Rocket 3.4 17:59:10 10° SSW 18:04:17 90° W 18:08:24 16° NNE
GEOS 3 Rocket 3.9 18:02:08 26° E 18:04:49 48° NE 18:09:47 10° NNW
Cosmos 1818 3.9 18:01:53 10° NNW 18:07:09 44° NE 18:09:03 32° E
Meteor 1-11 Rocket 4.3 18:02:34 10° N 18:07:31 31° ENE 18:07:50 31° ENE
USA 305 3.7 18:04:04 10° WNW 18:08:01 37° N 18:08:56 33° NNE
Cosmos 1814 Rocket 4.2 18:03:06 10° S 18:08:06 48° ESE 18:10:08 32° NE
Cosmos 44 Rocket 3.7 18:06:15 10° NNW 18:10:58 41° NE 18:11:46 38° ENE
CZ-4C R/B 2.9 18:04:11 10° NW 18:11:16 73° NE 18:19:38 10° SE
Meteor 1-26 Rocket 4.4 18:05:43 10° S 18:11:41 87° W 18:17:47 10° N
Cosmos 1933 4.3 18:08:53 10° SSW 18:12:48 47° WNW 18:16:43 10° N
Sich 1 3.5 18:08:36 10° NNW 18:12:50 60° W 18:17:03 10° S
Feng Yun 1-1 Rocket 4.4 18:14:13 10° SE 18:20:00 59° ENE 18:25:45 10° N
Cosmos 2360 Rocket 3.6 18:19:05 10° N 18:22:13 21° NNE 18:22:13 21° NNE
deb Chang Zheng 4 3.8 18:23:57 10° S 18:28:14 69° WSW 18:32:33 10° NNW
Cosmos 2208 Rocket 4.1 18:27:50 10° S 18:33:05 56° ESE 18:33:46 52° ENE
Cosmos 1666 2.9 18:30:02 10° NNW 18:33:44 67° W 18:37:24 10° S
H-2A R/B 3.0 18:30:00 10° S 18:34:58 46° W 18:39:52 10° NNW
Cosmos 2150 Rocket 4.2 18:32:32 10° NNW 18:37:02 50° NE 18:37:02 50° NE
USA 306 3.7 18:36:13 10° WNW 18:39:44 38° N 18:39:44 38° N
Cosmos 2322 Rocket 2.9 18:37:42 10° NNW 18:41:55 36° NNE 18:41:55 36° NNE
COSMO-SKYMED 1 3.0 18:42:21 30° N 18:44:22 62° WNW 18:48:39 10° SSW
Cosmos 2279 Rocket 4.1 18:40:56 10° SSW 18:47:07 73° W 18:53:21 10° N
USA 267 3.7 18:45:34 34° NE 18:48:04 51° NNW 18:54:21 10° W
Cosmos 1980 Rocket 3.1 18:44:15 10° NW 18:49:41 47° WSW 18:55:03 10° S
Cosmos 1812 3.8 18:47:02 10° SSW 18:50:42 44° WNW 18:51:36 37° NW
Cosmos 2266 Rocket 3.9 18:44:19 10° N 18:50:44 77° E 18:57:09 10° SSE
Spot 2 4.4 18:51:14 26° SSE 18:54:16 90° NE 18:59:26 10° NNW
Cosmos 841 Rocket 4.4 18:49:48 10° SW 18:54:46 46° WNW 18:57:22 26° N
Cosmos 1633 Rocket 4.0 18:51:59 10° NNW 18:56:11 47° W 19:00:23 10° SSW
YAOGAN 1 4.3 18:59:29 24° NNW 18:59:29 24° NNW 19:01:13 10° NNW
USA 307 4.2 18:54:32 10° WNW 18:57:22 33° NNW 18:57:22 33° NNW
Cosmos 1125 Rocket 3.9 18:53:25 10° NNW 18:57:27 51° N 18:57:27 51° N
SL-16 R/B 2.3 18:54:31 10° NNW 18:59:20 58° NNE 18:59:20 58° NNE
Meteor 2-15 Rocket 4.3 18:56:47 10° S 19:02:53 76° E 19:03:21 72° NE
Cosmos 2082 Rocket 2.8 18:58:45 10° SW 19:04:19 55° WNW 19:06:20 36° N
Okean O Rocket 3.2 19:02:43 10° SSW 19:06:47 35° W 19:10:53 10° NNW
Cosmos 2333 Rocket 4.1 19:04:26 10° N 19:06:12 17° N 19:06:12 17° N
ATLAS 2AS CENTAUR R/B 4.1 19:14:52 10° NW 19:20:53 26° N 19:20:53 26° N
Cosmos 1655 Rocket 4.4 19:15:52 10° NNW 19:22:11 63° W 19:28:26 10° S
ISS -0.5 19:22:27 10° W 19:23:11 14° W 19:23:11 14° W
COSMOS 2455 3.8 19:20:01 10° WSW 19:25:44 42° NW 19:27:05 37° NNW
Lacrosse 5 rocket 3.9 19:31:05 10° WNW 19:32:07 17° WNW 19:32:07 17° WNW
Cosmos 2219 Rocket 4.4 19:33:13 10° NNW 19:34:05 14° N 19:34:05 14° N
CZ-4C R/B 4.3 19:53:05 10° NW 19:59:42 36° WSW 20:05:33 16° S
Cosmos 2360 Rocket 4.3 20:02:30 10° NNW 20:04:00 19° NNW 20:04:00 19° NNW
Cosmos 2322 Rocket 4.4 20:21:52 10° NW 20:23:46 20° NW 20:23:46 20° NW
